Theta_e
334 341 349 353 352 351 350 349 349 350 349 350 349 348 348 349 349 350 350 351 349 347 346 346 347 347 346 346 343 341 341 340 342 343 345 351 352 351 351 350 351 351 352
334 342 347 352 353 351 350 350 349 348 349 350 351 350 350 349 348 348 348 348 347 346 345 343 341 342 342 340 341 339 336 335 335 336 338 348 350 348 347 347 347 346 349
332 343 349 350 352 352 351 350 348 348 349 350 350 349 348 347 346 346 346 346 346 344 342 340 338 338 337 337 335 333 331 329 327 326 333 342 347 348 348 346 346 344 345
333 343 347 347 351 352 351 350 348 347 348 349 349 348 348 346 345 343 342 342 342 341 339 335 334 333 332 330 329 328 326 324 323 324 334 336 339 344 348 345 343 343 343
333 341 345 346 350 351 351 350 349 348 349 350 348 347 346 344 340 339 337 337 339 337 334 331 329 328 326 326 324 323 321 320 319 329 331 334 340 344 346 345 343 342 344
333 337 342 346 349 350 351 350 349 348 349 348 347 344 340 339 337 333 334 337 335 333 330 327 325 325 323 322 320 319 317 315 319 323 328 331 337 340 341 345 344 344 344
333 337 341 344 348 349 350 350 350 350 349 349 346 339 340 339 336 333 331 332 330 328 326 325 325 322 321 319 317 315 313 312 313 317 323 330 335 335 336 337 339 340 341
333 338 340 339 343 345 348 349 349 349 349 345 342 336 340 337 334 332 329 329 327 325 324 324 323 320 319 317 316 313 310 308 312 314 319 325 328 330 331 332 333 334 335
335 336 339 341 341 337 340 341 343 344 343 342 341 339 338 336 333 329 327 326 325 324 324 322 321 319 317 315 312 310 308 306 309 312 313 319 321 325 326 327 328 329 330
333 335 337 340 340 341 342 334 336 339 339 339 337 335 332 331 330 328 326 326 324 324 321 320 319 317 315 312 309 306 304 306 306 308 312 315 319 321 323 324 325 326 327
328 332 335 336 338 338 338 335 332 333 333 333 333 328 325 330 326 323 322 326 324 322 319 318 316 314 311 308 305 302 301 303 303 305 309 312 316 318 319 320 321 322 323
324 327 331 333 334 336 335 337 338 338 338 336 335 329 330 327 324 321 319 322 324 321 317 316 313 308 302 304 302 300 302 302 302 303 307 310 313 315 317 318 319 321 323
323 325 327 329 331 333 333 334 335 337 337 334 332 330 328 323 320 319 319 320 320 315 314 311 307 303 303 303 302 302 301 302 302 302 305 309 313 314 316 318 320 320 320
319 323 325 326 328 330 332 331 332 333 334 331 330 327 322 320 318 316 317 318 317 314 311 307 303 303 302 300 301 300 300 301 301 302 304 306 311 314 317 318 319 320 321
316 319 322 325 325 327 329 329 329 330 330 329 327 323 320 318 315 313 315 315 314 310 306 302 302 301 300 299 299 299 299 300 300 301 306 307 312 314 317 318 319 320 320
313 316 319 321 323 325 326 327 327 327 328 328 325 321 318 316 313 311 312 311 309 306 303 302 301 300 300 299 298 298 298 299 300 301 305 308 310 313 313 316 317 319 321
311 313 315 318 321 322 323 325 325 325 325 325 322 320 316 313 310 308 309 307 305 302 301 300 299 299 298 298 297 297 298 298 299 299 302 305 311 311 314 316 318 317 317
310 310 312 314 317 319 321 323 323 323 322 321 321 318 314 311 308 307 306 304 302 300 299 299 298 297 298 297 297 296 297 298 298 299 300 305 307 307 305 306 307 309 310
310 309 309 311 313 316 319 320 321 321 320 319 319 317 314 310 307 305 305 303 300 299 298 298 297 297 297 296 296 296 297 297 296 297 299 299 297 299 300 301 300 302 303
309 309 309 309 310 313 315 317 318 318 318 318 317 315 312 309 306 304 303 302 299 298 297 297 296 296 297 296 292 294 296 297 296 296 296 295 295 295 296 296 299 301 303
307 306 306 306 306 309 311 312 313 313 314 314 315 313 311 309 305 304 303 301 298 297 297 297 296 295 294 295 295 293 293 294 294 295 295 295 293 294 294 295 296 299 302
304 304 304 304 305 306 309 311 311 311 311 312 312 311 310 308 305 303 302 300 298 297 297 296 296 294 295 295 295 295 291 291 293 293 294 292 292 293 292 293 294 295 299
300 300 300 301 303 303 306 308 308 306 307 306 307 307 306 306 304 302 301 300 298 298 297 297 296 295 294 293 295 297 291 293 291 292 292 292 291 292 292 292 292 293 297
297 299 299 300 300 301 303 304 304 302 301 302 303 304 304 303 303 302 301 300 299 298 297 297 296 297 297 293 292 292 293 295 293 288 291 291 291 290 291 291 292 292 296
296 297 298 298 298 299 300 302 301 301 303 303 301 302 301 301 301 300 300 299 298 297 298 297 295 296 296 297 294 292 292 292 292 294 289 288 290 291 290 291 292 292 294
297 296 296 296 296 297 298 299 299 299 300 300 299 299 299 299 298 299 298 298 297 297 296 296 295 295 295 296 296 294 293 291 291 291 291 290 289 288 289 290 290 292 292
Wind_Speed
11 14 16 15 16 14 13 12 11 10 10 10 10 8 8 9 11 11 9 11 12 11 11 10 11 12 12 11 10 9 9 10 10 10 10 13 13 12 12 9 7 12 12
14 16 15 16 16 14 12 12 12 10 9 10 12 12 11 11 11 10 10 10 11 11 11 9 7 9 7 7 9 8 8 9 9 9 7 10 12 11 11 11 10 10 11
15 16 17 14 16 15 13 11 11 11 11 12 12 12 12 11 10 9 8 8 9 11 11 9 7 7 5 6 7 7 7 7 7 7 4 5 8 9 9 10 10 11 11
14 15 17 12 15 15 14 13 11 10 10 11 12 11 12 12 11 9 6 3 5 9 9 6 7 7 5 7 7 6 7 7 7 3 3 4 5 7 8 8 9 10 9
14 14 13 11 13 14 15 14 13 12 11 11 13 11 11 11 8 8 4 3 7 7 7 6 6 6 6 7 7 7 7 7 4 1 5 5 2 9 10 6 7 9 9
13 13 12 12 13 13 13 15 14 13 12 14 14 13 7 7 7 5 5 6 8 8 8 7 6 7 6 7 8 8 7 6 3 5 5 5 4 7 8 11 7 8 7
15 13 13 9 11 13 13 14 13 13 15 15 11 8 6 8 8 7 7 8 8 8 8 9 8 7 8 7 8 8 8 8 5 5 5 4 7 7 7 8 8 10 11
14 14 14 12 9 10 11 13 13 13 14 12 10 8 8 9 8 9 8 8 8 8 8 9 8 8 8 8 9 9 9 4 5 5 5 4 7 6 7 6 6 7 7
12 13 13 14 13 10 11 10 10 10 8 10 10 9 9 9 11 10 9 9 9 9 9 9 9 8 7 8 9 9 9 7 6 5 4 4 7 6 6 5 5 5 6
11 13 13 13 14 15 14 11 9 10 10 10 13 11 9 9 8 8 7 9 10 10 9 9 9 9 9 9 9 8 7 5 6 5 4 5 6 5 6 6 5 5 6
11 14 14 14 14 15 14 12 9 10 10 10 10 11 10 9 10 10 8 8 11 10 10 9 9 9 9 8 8 7 1 4 4 4 3 7 6 5 5 4 4 4 5
16 16 15 16 16 15 11 14 14 13 12 12 11 11 11 10 9 9 7 7 9 9 9 9 8 7 3 3 4 2 3 4 3 3 4 6 3 2 2 3 3 4 6
16 14 18 16 16 16 13 11 8 8 9 10 14 13 12 9 8 7 7 7 8 8 7 8 7 4 4 3 3 3 3 2 2 2 5 6 3 1 3 4 5 6 6
15 17 17 18 16 17 11 11 11 10 10 10 12 16 11 8 9 9 7 9 8 7 7 6 4 4 5 4 4 4 3 2 2 2 4 7 4 2 4 5 6 7 7
17 16 17 17 18 16 16 12 12 13 11 12 12 14 12 11 11 10 10 9 8 8 7 7 6 5 4 4 3 3 3 3 3 2 2 5 7 2 5 6 7 7 8
15 17 16 19 19 18 17 18 13 13 13 13 13 14 17 12 11 11 10 10 9 8 6 6 6 5 5 4 4 3 2 2 3 3 2 3 7 5 4 6 7 8 11
16 17 19 20 20 21 21 19 14 13 13 13 13 17 18 15 15 14 11 10 9 8 9 6 6 5 5 4 4 3 2 3 3 4 4 3 6 14 10 8 10 10 8
15 16 17 14 18 21 20 16 13 13 13 13 13 13 18 17 16 14 11 11 10 9 8 8 8 6 5 5 5 4 4 4 4 5 5 5 4 4 8 9 8 7 5
15 16 16 18 20 21 20 15 15 16 13 13 13 13 17 17 17 14 11 11 12 10 9 9 8 8 7 6 4 4 3 4 4 4 6 6 6 4 4 7 8 6 3
13 13 13 12 16 16 13 13 12 12 12 13 13 13 18 14 18 14 11 12 12 10 10 9 10 7 7 7 5 4 4 3 3 4 5 5 5 5 4 3 2 5 6
10 9 10 11 11 11 11 12 12 13 11 12 12 17 18 16 19 16 11 13 12 12 12 13 10 12 6 8 7 5 4 4 5 5 5 4 4 4 3 2 2 2 4
14 12 8 8 10 11 10 10 11 10 11 11 11 13 16 17 18 15 15 13 15 11 14 14 13 9 5 10 6 5 5 4 4 5 4 4 5 4 3 3 4 4 4
17 15 12 9 6 8 10 7 7 5 7 8 9 10 11 14 15 17 17 13 14 12 12 14 14 14 9 9 9 3 4 5 7 6 6 6 5 4 3 4 5 5 6
20 17 16 13 7 3 7 7 10 9 9 8 9 10 10 14 15 16 15 15 15 12 13 12 11 12 10 10 6 6 3 1 5 5 6 7 6 5 4 3 5 5 7
15 20 19 15 12 8 3 6 6 10 8 6 5 9 12 12 16 16 16 16 14 11 13 15 15 14 11 10 9 6 5 3 2 2 5 7 7 6 4 4 5 5 7
22 19 17 17 15 10 6 4 6 9 9 7 7 6 7 9 11 15 15 14 14 13 14 13 14 16 13 10 9 9 8 7 8 5 3 7 8 7 7 6 6 6 6
Wind_Direction
193 170 170 179 175 175 167 159 151 146 147 141 135 138 134 116 100 88 117 110 102 95 84 72 67 73 64 80 79 71 62 58 53 57 60 55 86 75 71 52 41 68 54
161 173 174 175 174 176 174 163 154 152 156 153 144 131 121 114 105 96 97 107 109 106 94 83 81 76 76 79 78 69 65 60 54 51 30 85 60 78 72 64 49 68 60
166 172 177 177 175 173 173 166 163 166 164 162 150 145 139 131 121 113 106 108 111 102 86 81 82 77 75 72 71 71 70 65 60 52 26 79 73 57 75 71 63 61 63
170 174 180 175 173 173 173 171 178 183 182 171 159 152 145 139 134 122 101 118 132 87 92 104 96 95 82 72 65 57 61 64 61 18 85 64 77 66 62 85 72 66 69
175 179 181 173 178 177 179 177 181 189 196 172 154 149 151 153 135 108 110 141 115 123 122 112 105 104 97 82 73 63 56 55 51 58 63 50 59 72 64 65 104 78 54
178 185 167 183 190 187 180 183 188 191 193 167 161 168 142 119 129 166 170 138 132 135 133 121 121 111 95 88 75 70 65 56 354 54 56 67 52 60 63 61 87 84 77
179 184 183 191 196 199 191 194 195 191 182 174 165 131 163 148 150 191 174 154 145 140 142 135 129 121 111 99 93 82 69 57 65 62 63 46 57 57 66 68 73 76 80
185 184 189 185 187 172 182 192 194 185 182 166 142 154 190 158 179 190 188 167 156 154 148 137 133 125 116 106 94 83 74 57 94 72 68 70 16 55 53 50 59 61 69
193 190 194 194 190 178 173 175 174 176 183 167 147 175 175 174 186 190 188 180 172 161 149 143 131 121 110 100 88 81 73 48 81 69 58 51 14 40 44 36 45 52 66
198 201 202 202 200 199 194 180 189 188 187 181 160 176 156 162 182 184 180 188 177 162 153 143 136 128 118 105 98 90 77 62 60 56 45 33 10 43 43 40 45 51 60
208 210 205 205 207 208 206 197 192 199 188 167 158 149 149 196 193 182 192 177 178 165 156 147 138 122 106 91 81 82 272 63 65 47 35 1 9 30 45 52 53 59 68
210 206 207 207 207 208 208 204 209 205 204 201 193 168 189 195 194 192 183 209 161 157 159 151 138 125 176 128 107 127 59 65 63 51 52 349 352 39 72 81 90 89 81
221 210 209 206 205 204 203 207 207 206 206 201 195 185 189 187 181 188 183 184 174 167 171 163 156 181 152 151 121 104 104 90 67 53 49 348 351 88 127 127 106 101 107
224 217 209 209 207 206 204 205 205 206 202 197 191 187 181 185 187 188 189 184 182 184 173 175 172 155 142 119 113 113 100 96 80 89 86 329 318 165 131 127 119 114 111
235 225 217 208 209 208 206 206 208 207 203 201 195 192 188 190 188 185 190 187 186 180 181 178 166 158 141 132 130 134 126 107 113 121 104 353 341 143 130 128 122 113 109
239 232 220 214 211 207 208 211 206 206 202 200 196 195 195 191 189 189 187 190 185 187 178 175 168 165 162 152 140 137 115 109 115 130 124 94 6 352 116 125 135 137 101
233 231 220 214 211 211 209 210 206 205 202 200 200 195 193 193 190 188 187 187 185 182 174 169 168 168 163 156 146 147 141 138 145 145 145 144 113 42 39 71 76 83 80
245 231 230 218 212 213 214 212 208 206 204 205 202 198 195 193 191 191 187 187 179 177 179 178 174 171 172 173 167 168 162 152 141 141 144 138 109 99 64 54 66 73 68
255 242 233 220 217 217 218 214 212 211 210 209 205 201 198 196 193 190 189 186 176 179 184 181 178 178 175 171 159 144 137 143 145 139 133 123 110 117 111 70 53 29 51
269 254 247 231 226 220 220 219 217 216 213 212 207 206 197 194 193 194 191 183 180 180 182 183 177 180 179 157 138 120 118 142 168 154 141 128 115 121 128 140 129 67 46
315 295 268 251 235 219 211 211 216 224 221 225 216 209 203 196 191 192 191 186 186 186 184 183 174 169 160 159 135 123 118 158 186 168 164 150 140 139 120 131 138 136 100
358 348 325 278 255 223 217 214 211 214 225 233 227 227 215 204 196 194 189 186 187 185 187 186 178 173 163 182 178 152 172 174 183 187 174 162 143 152 145 142 134 142 155
13 357 353 337 278 238 241 230 216 245 215 214 227 232 227 222 207 198 197 189 187 188 189 188 188 180 171 190 210 203 164 204 155 179 196 184 172 175 169 156 153 149 158
10 7 16 4 353 268 223 232 234 242 235 219 215 213 217 222 221 215 208 200 191 190 193 191 188 191 184 179 193 226 258 119 185 166 202 201 201 203 192 178 166 163 163
20 28 17 21 27 6 308 237 239 252 263 267 244 206 209 208 217 219 216 209 204 200 198 189 187 193 195 184 188 166 197 197 242 186 160 182 207 206 195 198 183 178 178
28 24 23 24 27 20 1 299 265 272 274 280 268 239 212 206 206 213 218 217 212 210 203 198 195 198 196 200 197 191 178 172 188 179 161 165 188 183 184 187 192 189 181